CW2274 Weather Reports


time (UTC)temp
F
wind
direction
speed
knots
gust
knots
rain 1hr
in
rain 24hr
in
rain mn
in
humidity
%
barometer
mb
20260509060043 76 307 1.7 2.6 0.00 0.00 0.00 21 1013.4
20260509055524 76 307 1.7 2.6 0.00 0.00 0.00 21 1013.3
20260509055020 76 307 1.7 2.6 0.00 0.00 0.00 21 1013.3
20260509054520 76 307 1.7 3.5 0.00 0.00 0.00 20 1013.2
20260509054016 76 307 1.7 3.5 0.00 0.00 0.00 21 1013.2
20260509053531 76 307 2.6 2.6 0.00 0.00 0.00 20 1013.3
20260509053027 77 308 1.7 3.5 0.00 0.00 0.00 20 1013.1
20260509052523 77 308 1.7 3.5 0.00 0.00 0.00 21 1013.2
20260509052019 78 308 2.6 3.5 0.00 0.00 0.00 19 1013.2
20260509051515 76 309 1.7 3.5 0.00 0.00 0.00 21 1013.3
20260509051015 76 310 1.7 2.6 0.00 0.00 0.00 22 1013.2
20260509050530 76 310 1.7 2.6 0.00 0.00 0.00 21 1013.2
20260509050039 76 310 1.7 2.6 0.00 0.00 0.00 21 1013.1
20260509045520 77 310 1.7 2.6 0.00 0.00 0.00 21 1013.2
20260509045016 77 310 1.7 2.6 0.00 0.00 0.00 21 1013.1
20260509044532 77 310 1.7 2.6 0.00 0.00 0.00 20 1012.9
20260509044028 79 310 0.9 2.6 0.00 0.00 0.00 19 1013.0
20260509043524 79 310 0.9 2.6 0.00 0.00 0.00 18 1012.8
20260509043023 80 310 0.9 2.6 0.00 0.00 0.00 17 1012.9
20260509042519 80 310 0.9 2.6 0.00 0.00 0.00 18 1012.8
20260509042016 79 310 1.7 2.6 0.00 0.00 0.00 18 1012.8
20260509041532 79 310 1.7 2.6 0.00 0.00 0.00 18 1012.7
20260509041027 80 310 1.7 2.6 0.00 0.00 0.00 18 1012.6
20260509040523 80 310 1.7 2.6 0.00 0.00 0.00 18 1012.5
20260509040032 80 310 1.7 2.6 0.00 0.00 0.00 17 1012.5
20260509035517 80 310 1.7 2.6 0.00 0.00 0.00 17 1012.5
20260509035033 80 310 1.7 2.6 0.00 0.00 0.00 17 1012.4
20260509034529 80 310 1.7 2.6 0.00 0.00 0.00 17 1012.4
20260509034024 80 310 1.7 2.6 0.00 0.00 0.00 16 1012.3
20260509033520 81 310 1.7 2.6 0.00 0.00 0.00 17 1012.4
20260509033016 81 310 1.7 2.6 0.00 0.00 0.00 16 1012.4
20260509032531 81 310 1.7 2.6 0.00 0.00 0.00 16 1012.2
20260509032031 81 310 1.7 3.5 0.00 0.00 0.00 16 1012.2
20260509031528 82 310 1.7 3.5 0.00 0.00 0.00 16 1012.2
20260509031024 82 310 1.7 2.6 0.00 0.00 0.00 16 1012.2
20260509030520 82 310 1.7 2.6 0.00 0.00 0.00 16 1012.1
20260509030047 82 310 1.7 2.6 0.00 0.00 0.00 16 1012.0
20260509025528 83 310 0.9 2.6 0.00 0.00 0.00 15 1011.9
20260509025024 83 310 0.9 2.6 0.00 0.00 0.00 14 1011.9
20260509024524 84 310 1.7 2.6 0.00 0.00 0.00 14 1011.8
20260509024020 85 310 1.7 3.5 0.00 0.00 0.00 13 1011.8
20260509023516 86 310 1.7 3.5 0.00 0.00 0.00 13 1011.7
20260509023031 86 310 1.7 3.5 0.00 0.00 0.00 13 1011.7
20260509022527 87 311 0.9 3.5 0.00 0.00 0.00 13 1011.6
20260509022023 87 311 0.9 1.7 0.00 0.00 0.00 12 1011.4
20260509021519 87 312 0.0 2.6 0.00 0.00 0.00 13 1011.4
20260509021019 88 312 0.9 3.5 0.00 0.00 0.00 12 1011.4
20260509020515 88 302 1.7 3.5 0.00 0.00 0.00 12 1011.4
20260509020042 89 290 1.7 3.5 0.00 0.00 0.00 12 1011.3
20260509015523 89 360 1.7 3.5 0.00 0.00 0.00 12 1011.3
20260509015019 89 321 0.9 4.3 0.00 0.00 0.00 11 1011.3
20260509014515 89 342 1.7 6.1 0.00 0.00 0.00 11 1011.2
20260509014031 90 304 2.6 6.1 0.00 0.00 0.00 11 1011.1
20260509013526 90 342 2.6 8.7 0.00 0.00 0.00 11 1011.1
20260509013026 90 317 2.6 8.7 0.00 0.00 0.00 11 1011.0
20260509012522 90 316 2.6 4.3 0.00 0.00 0.00 11 1011.0
20260509012019 91 306 1.7 7.0 0.00 0.00 0.00 11 1011.0
20260509011515 91 323 2.6 7.0 0.00 0.00 0.00 11 1011.0
20260509011031 91 292 0.9 7.0 0.00 0.00 0.00 10 1011.0
20260509010526 91 336 1.7 7.0 0.00 0.00 0.00 10 1011.1
20260509010034 92 310 2.6 6.1 0.00 0.00 0.00 10 1011.2
20260509005519 91 355 2.6 6.1 0.00 0.00 0.00 10 1011.1
20260509005016 92 344 2.6 7.0 0.00 0.00 0.00 10 1011.1
20260509004533 92 324 1.7 7.0 0.00 0.00 0.00 10 1011.1
20260509004029 93 322 1.7 8.7 0.00 0.00 0.00 10 1011.1
20260509003524 93 315 4.3 8.7 0.00 0.00 0.00 10 1011.1
20260509003019 92 306 4.3 7.8 0.00 0.00 0.00 10 1011.1
20260509002515 92 311 3.5 10.4 0.00 0.00 0.00 10 1011.0
20260509002015 93 344 2.6 7.8 0.00 0.00 0.00 10 1011.1
20260509001531 93 339 1.7 7.8 0.00 0.00 0.00 10 1011.1
20260509001026 93 292 2.6 10.4 0.00 0.00 0.00 10 1011.2
20260509000522 93 11 3.5 8.7 0.00 0.00 0.00 10 1011.3
20260509000029 93 294 2.6 7.0 0.00 0.00 0.00 10 1011.2
20260508235530 93 343 2.6 8.7 0.00 0.00 0.00 10 1011.4
20260508235026 93 327 3.5 8.7 0.00 0.00 0.00 10 1011.4
20260508234525 93 280 2.6 8.7 0.00 0.00 0.00 9 1011.4
20260508234021 94 356 3.5 9.6 0.00 0.00 0.00 9 1011.4
20260508233517 94 291 2.6 9.6 0.00 0.00 0.00 9 1011.4
20260508233013 93 20 3.5 7.8 0.00 0.00 0.00 10 1011.4
20260508232529 94 339 2.6 8.7 0.00 0.00 0.00 9 1011.5
20260508232023 95 307 2.6 11.3 0.00 0.00 0.00 10 1011.5
20260508231519 94 290 2.6 11.3 0.00 0.00 0.00 9 1011.6
20260508231019 94 285 5.2 10.4 0.00 0.00 0.00 10 1011.6
20260508230516 94 354 2.6 7.8 0.00 0.00 0.00 11 1011.5
20260508230044 95 360 1.7 13.0 0.00 0.00 0.00 10 1011.7
20260508225525 95 312 3.5 13.0 0.00 0.00 0.00 10 1011.8
20260508225022 95 271 3.5 9.6 0.00 0.00 0.00 9 1011.8
20260508224518 95 263 3.5 8.7 0.00 0.00 0.00 9 1011.8
20260508224014 95 335 2.6 7.8 0.00 0.00 0.00 10 1011.9
20260508223514 95 299 4.3 8.7 0.00 0.00 0.00 10 1012.0
20260508223029 96 327 1.7 12.2 0.00 0.00 0.00 10 1012.0
20260508222525 96 279 5.2 12.2 0.00 0.00 0.00 10 1011.9
20260508222020 96 265 6.1 9.6 0.00 0.00 0.00 9 1012.0
20260508221516 94 286 3.5 13.9 0.00 0.00 0.00 11 1012.2
20260508221031 95 290 3.5 13.9 0.00 0.00 0.00 10 1012.2
20260508220526 96 289 2.6 7.0 0.00 0.00 0.00 11 1012.3
20260508220032 94 321 2.6 10.4 0.00 0.00 0.00 11 1012.4
20260508215516 95 298 5.2 11.3 0.00 0.00 0.00 11 1012.5
20260508215032 96 289 5.2 11.3 0.00 0.00 0.00 10 1012.5
20260508214527 95 302 5.2 11.3 0.00 0.00 0.00 11 1012.6
20260508214022 95 281 6.1 13.0 0.00 0.00 0.00 10 1012.9
20260508213517 95 263 4.3 10.4 0.00 0.00 0.00 11 1012.9
20260508213032 93 312 1.7 9.6 0.00 0.00 0.00 12 1012.9
20260508212528 95 325 2.6 9.6 0.00 0.00 0.00 11 1013.0
20260508212028 95 294 1.7 8.7 0.00 0.00 0.00 11 1013.0
20260508211524 94 294 2.6 8.7 0.00 0.00 0.00 12 1013.1
20260508211020 93 338 4.3 13.0 0.00 0.00 0.00 12 1013.2
20260508210516 95 4 4.3 10.4 0.00 0.00 0.00 11 1013.1
20260508205531 95 273 5.2 10.4 0.00 0.00 0.00 12 1013.2
20260508205027 96 286 3.5 7.8 0.00 0.00 0.00 10 1013.3
20260508204527 94 287 4.3 9.6 0.00 0.00 0.00 12 1013.4
20260508204022 94 288 3.5 9.6 0.00 0.00 0.00 12 1013.5
20260508203517 94 282 3.5 8.7 0.00 0.00 0.00 12 1013.5
20260508203013 92 9 2.6 8.7 0.00 0.00 0.00 13 1013.5
20260508202529 94 291 3.5 8.7 0.00 0.00 0.00 13 1013.6
20260508202026 95 357 3.5 9.6 0.00 0.00 0.00 12 1013.7
20260508201521 94 287 4.3 9.6 0.00 0.00 0.00 12 1013.6
20260508201020 93 258 3.5 9.6 0.00 0.00 0.00 13 1013.6
20260508200516 93 308 2.6 12.2 0.00 0.00 0.00 13 1013.9
20260508200044 93 354 4.3 12.2 0.00 0.00 0.00 12 1013.9
20260508195526 93 298 4.3 9.6 0.00 0.00 0.00 12 1014.1
20260508195022 93 240 4.3 9.6 0.00 0.00 0.00 12 1014.0
20260508194518 93 288 2.6 10.4 0.00 0.00 0.00 13 1014.0
20260508194014 94 277 4.3 9.6 0.00 0.00 0.00 13 1014.2
20260508193513 92 360 1.7 8.7 0.00 0.00 0.00 13 1014.1
20260508193029 93 308 2.6 8.7 0.00 0.00 0.00 14 1014.3
20260508192525 93 64 1.7 11.3 0.00 0.00 0.00 13 1014.4
20260508192021 92 270 3.5 8.7 0.00 0.00 0.00 14 1014.4
20260508191517 92 354 4.3 9.6 0.00 0.00 0.00 14 1014.5
20260508191013 94 292 4.3 9.6 0.00 0.00 0.00 13 1014.5
20260508190528 92 295 3.5 9.6 0.00 0.00 0.00 14 1014.6
20260508190036 91 275 3.5 7.8 0.00 0.00 0.00 14 1014.8
20260508185521 92 301 3.5 5.2 0.00 0.00 0.00 14 1014.8
20260508185017 91 283 0.9 4.3 0.00 0.00 0.00 15 1014.9
20260508184513 90 52 1.7 5.2 0.00 0.00 0.00 15 1014.9
20260508184029 90 327 0.9 5.2 0.00 0.00 0.00 16 1015.1
20260508183524 89 293 1.7 7.0 0.00 0.00 0.00 16 1015.0
20260508183019 89 325 2.6 7.0 0.00 0.00 0.00 16 1015.1
20260508182515 88 318 1.7 5.2 0.00 0.00 0.00 16 1015.1
20260508182016 89 342 1.7 5.2 0.00 0.00 0.00 16 1015.2
20260508181028 87 340 3.5 7.8 0.00 0.00 0.00 17 1015.2
20260508180524 89 359 1.7 7.8 0.00 0.00 0.00 17 1015.4
20260508180032 87 20 3.5 6.1 0.00 0.00 0.00 16 1015.4
20260508175513 87 312 1.7 7.0 0.00 0.00 0.00 17 1015.6
20260508175029 87 321 2.6 7.0 0.00 0.00 0.00 17 1015.7
20260508174530 87 235 1.7 4.3 0.00 0.00 0.00 17 1015.7
20260508174026 88 308 0.9 4.3 0.00 0.00 0.00 17 1015.8
20260508173522 86 21 1.7 4.3 0.00 0.00 0.00 18 1015.8
20260508173018 86 326 0.9 6.1 0.00 0.00 0.00 19 1015.8
20260508172513 85 24 2.6 6.1 0.00 0.00 0.00 18 1015.9
20260508172029 85 68 0.9 3.5 0.00 0.00 0.00 19 1015.9
20260508171525 84 213 0.9 2.6 0.00 0.00 0.00 20 1016.0
20260508171025 83 216 0.9 3.5 0.00 0.00 0.00 21 1016.1
20260508170521 83 218 1.7 3.5 0.00 0.00 0.00 21 1016.2
20260508170029 82 214 1.7 3.5 0.00 0.00 0.00 21 1016.2
20260508165530 83 59 0.9 2.6 0.00 0.00 0.00 21 1016.2
20260508165026 80 73 1.7 3.5 0.00 0.00 0.00 23 1016.2
20260508164521 80 75 1.7 4.3 0.00 0.00 0.00 23 1016.2
20260508164017 80 77 1.7 4.3 0.00 0.00 0.00 23 1016.3
20260508163517 78 96 1.7 3.5 0.00 0.00 0.00 24 1016.3
20260508163013 78 105 1.7 4.3 0.00 0.00 0.00 24 1016.3
20260508162528 77 119 1.7 4.3 0.00 0.00 0.00 26 1016.3
20260508162024 77 119 2.6 6.1 0.00 0.00 0.00 27 1016.4
20260508161520 77 79 3.5 6.1 0.00 0.00 0.00 26 1016.4
20260508161016 76 96 1.7 6.1 0.00 0.00 0.00 27 1016.5
20260508160512 76 70 2.6 4.3 0.00 0.00 0.00 27 1016.5
20260508160039 75 97 2.6 3.5 0.00 0.00 0.00 28 1016.5
20260508155524 75 102 1.7 3.5 0.00 0.00 0.00 29 1016.5
20260508155020 75 106 1.7 3.5 0.00 0.00 0.00 29 1016.6
20260508154516 74 104 0.9 3.5 0.00 0.00 0.00 29 1016.6
20260508154012 74 104 1.7 2.6 0.00 0.00 0.00 30 1016.6
20260508153528 73 105 1.7 4.3 0.00 0.00 0.00 30 1016.6
20260508153023 71 106 1.7 5.2 0.00 0.00 0.00 31 1016.7
20260508152519 71 95 1.7 4.3 0.00 0.00 0.00 32 1016.8
20260508152019 70 81 2.6 5.2 0.00 0.00 0.00 32 1016.7
20260508151515 69 90 1.7 4.3 0.00 0.00 0.00 33 1016.7
20260508151031 69 110 1.7 4.3 0.00 0.00 0.00 34 1016.8
20260508150526 69 98 1.7 4.3 0.00 0.00 0.00 34 1016.8
20260508150035 69 68 1.7 5.2 0.00 0.00 0.00 35 1016.7
20260508145515 69 65 1.7 5.2 0.00 0.00 0.00 35 1016.7
20260508145031 69 61 1.7 2.6 0.00 0.00 0.00 36 1016.8
20260508144531 68 61 1.7 6.1 0.00 0.00 0.00 36 1016.8
20260508144027 68 58 1.7 6.1 0.00 0.00 0.00 36 1016.7
20260508143523 68 71 1.7 5.2 0.00 0.00 0.00 36 1016.6
20260508143019 67 71 1.7 5.2 0.00 0.00 0.00 37 1016.5
20260508142514 67 121 1.7 3.5 0.00 0.00 0.00 38 1016.5
20260508142030 66 122 1.7 3.5 0.00 0.00 0.00 38 1016.5
20260508141526 65 121 1.7 4.3 0.00 0.00 0.00 38 1016.4
20260508141026 65 122 2.6 4.3 0.00 0.00 0.00 39 1016.4
20260508140521 65 115 1.7 3.5 0.00 0.00 0.00 39 1016.3
20260508140028 65 112 1.7 3.5 0.00 0.00 0.00 39 1016.3
20260508135529 64 113 2.6 3.5 0.00 0.00 0.00 40 1016.3
20260508135026 64 316 1.7 4.3 0.00 0.00 0.00 40 1016.3
20260508134522 64 134 1.7 2.6 0.00 0.00 0.00 40 1016.2
20260508134018 63 135 1.7 3.5 0.00 0.00 0.00 41 1016.3
20260508133519 63 135 1.7 3.5 0.00 0.00 0.00 42 1016.2
20260508133014 62 135 1.7 3.5 0.00 0.00 0.00 42 1016.2
20260508132529 63 159 1.7 3.5 0.00 0.00 0.00 42 1016.2
20260508132026 62 189 0.9 2.6 0.00 0.00 0.00 42 1016.0
20260508131522 62 189 0.9 2.6 0.00 0.00 0.00 43 1016.0
20260508131017 62 190 0.0 1.7 0.00 0.00 0.00 43 1016.0
20260508130512 61 190 0.0 2.6 0.00 0.00 0.00 44 1015.9
20260508130039 60 190 0.9 2.6 0.00 0.00 0.00 44 1015.8
20260508125524 60 189 0.0 0.0 0.00 0.00 0.00 45 1015.7
20260508125019 59 189 0.0 0.0 0.00 0.00 0.00 46 1015.8
20260508124515 59 189 0.0 0.9 0.00 0.00 0.00 47 1015.6
20260508124031 58 189 0.0 1.7 0.00 0.00 0.00 47 1015.6
20260508123527 61 189 0.9 1.7 0.00 0.00 0.00 43 1015.6
20260508123022 60 189 0.0 2.6 0.00 0.00 0.00 44 1015.5
20260508122518 60 189 0.9 2.6 0.00 0.00 0.00 43 1015.4
20260508122018 60 188 0.9 1.7 0.00 0.00 0.00 44 1015.3
20260508121514 60 188 0.0 1.7 0.00 0.00 0.00 44 1015.2
20260508121030 60 188 0.0 1.7 0.00 0.00 0.00 44 1015.3
20260508120526 61 188 0.0 1.7 0.00 0.00 0.00 43 1015.2
20260508120034 61 188 0.0 1.7 0.00 0.00 0.00 43 1015.2
20260508115516 59 188 0.0 0.9 0.00 0.00 0.00 45 1015.3
20260508115012 60 188 0.0 0.9 0.00 0.00 0.00 45 1015.2
20260508114512 59 188 0.9 1.7 0.00 0.00 0.00 46 1015.3
20260508114028 59 188 0.9 1.7 0.00 0.00 0.00 47 1015.2
20260508113524 58 188 0.0 1.7 0.00 0.00 0.00 48 1015.1
20260508113021 58 188 0.9 1.7 0.00 0.00 0.00 49 1015.0
20260508112517 59 188 0.0 0.9 0.00 0.00 0.00 47 1014.9
20260508112012 59 188 0.0 0.9 0.00 0.00 0.00 48 1015.0
20260508111528 58 188 0.9 0.9 0.00 0.00 0.00 48 1014.9
20260508111028 59 188 0.0 0.0 0.00 0.00 0.00 46 1014.8
20260508110524 60 188 0.0 0.0 0.00 0.00 0.00 45 1014.8
20260508110031 60 188 0.0 0.0 0.00 0.00 0.00 45 1014.8
20260508105512 60 188 0.0 0.9 0.00 0.00 0.00 45 1014.8
20260508105028 61 188 0.9 0.9 0.00 0.00 0.00 44 1014.8
20260508104524 60 188 0.9 0.9 0.00 0.00 0.00 44 1014.7
20260508104020 62 188 0.9 1.7 0.00 0.00 0.00 41 1014.7
20260508103520 62 188 0.0 1.7 0.00 0.00 0.00 40 1014.7
20260508103016 60 188 0.9 1.7 0.00 0.00 0.00 45 1014.8
20260508102511 60 188 0.0 0.0 0.00 0.00 0.00 44 1014.8
20260508102027 61 188 0.0 1.7 0.00 0.00 0.00 44 1014.9
20260508101523 60 188 0.0 1.7 0.00 0.00 0.00 44 1014.8
20260508101019 61 188 0.9 1.7 0.00 0.00 0.00 43 1014.8
20260508100515 61 188 0.9 0.9 0.00 0.00 0.00 42 1014.8
20260508100026 62 188 0.9 1.7 0.00 0.00 0.00 41 1014.8
20260508095527 61 188 0.9 1.7 0.00 0.00 0.00 42 1014.8
20260508095023 62 188 0.0 0.9 0.00 0.00 0.00 39 1014.7
20260508094519 63 188 0.0 0.9 0.00 0.00 0.00 39 1014.7
20260508094015 64 188 0.0 2.6 0.00 0.00 0.00 37 1014.7
20260508093530 65 188 0.9 2.6 0.00 0.00 0.00 36 1014.6
20260508093026 64 188 0.9 1.7 0.00 0.00 0.00 37 1014.7
20260508092527 62 190 0.0 0.9 0.00 0.00 0.00 39 1014.7
20260508092027 64 190 0.0 0.9 0.00 0.00 0.00 37 1014.7
20260508091523 65 190 0.0 0.0 0.00 0.00 0.00 36 1014.7
20260508091018 65 190 0.0 1.7 0.00 0.00 0.00 35 1014.7
20260508090514 66 189 0.0 1.7 0.00 0.00 0.00 34 1014.7
20260508090043 65 190 0.9 0.9 0.00 0.00 0.00 34 1014.7
20260508085523 65 190 0.0 0.0 0.00 0.00 0.00 36 1014.8
20260508085019 65 190 0.0 0.0 0.00 0.00 0.00 35 1014.9
20260508084519 64 189 0.0 0.0 0.00 0.00 0.00 35 1014.9
20260508084015 65 190 0.0 0.0 0.00 0.00 0.00 35 1014.9
20260508083530 65 190 0.0 0.0 0.00 0.00 0.00 34 1014.8
20260508083027 66 190 0.0 0.9 0.00 0.00 0.00 32 1014.8
20260508082523 67 190 0.0 1.7 0.00 0.00 0.00 31 1014.8
20260508082019 68 190 0.9 2.6 0.00 0.00 0.00 30 1014.8
20260508081514 69 189 0.9 2.6 0.00 0.00 0.00 30 1014.9
20260508081013 67 189 0.0 0.0 0.00 0.00 0.00 31 1015.0
20260508080529 65 189 0.0 0.0 0.00 0.00 0.00 35 1015.0
20260508080036 65 189 0.0 0.0 0.00 0.00 0.00 35 1015.2
20260508075517 65 189 0.0 0.0 0.00 0.00 0.00 34 1015.0
20260508075013 67 189 0.0 0.0 0.00 0.00 0.00 33 1015.2
20260508074529 66 189 0.0 0.0 0.00 0.00 0.00 32 1015.3
20260508074025 66 189 0.0 0.0 0.00 0.00 0.00 33 1015.3
20260508073520 67 189 0.0 0.9 0.00 0.00 0.00 33 1015.4
20260508073019 67 189 0.0 1.7 0.00 0.00 0.00 32 1015.4
20260508072515 67 189 0.9 1.7 0.00 0.00 0.00 33 1015.4
20260508072012 67 189 0.9 1.7 0.00 0.00 0.00 32 1015.4
20260508071527 68 189 0.9 1.7 0.00 0.00 0.00 31 1015.5
20260508071023 68 189 0.0 1.7 0.00 0.00 0.00 30 1015.4
20260508070518 67 189 0.0 1.7 0.00 0.00 0.00 32 1015.4
20260508070046 67 188 0.9 1.7 0.00 0.00 0.00 33 1015.4
20260508065528 67 188 0.9 1.7 0.00 0.00 0.00 33 1015.3
20260508065024 68 188 0.0 0.0 0.00 0.00 0.00 31 1015.4
20260508064519 69 188 0.0 0.9 0.00 0.00 0.00 31 1015.3
20260508064014 70 188 0.0 0.9 0.00 0.00 0.00 29 1015.3
20260508063530 70 188 0.0 0.9 0.00 0.00 0.00 28 1015.3
20260508063025 71 188 0.0 0.9 0.00 0.00 0.00 28 1015.4
20260508062521 71 188 0.0 1.7 0.00 0.00 0.00 27 1015.5
20260508062020 72 188 0.0 1.7 0.00 0.00 0.00 26 1015.6
20260508061516 72 189 0.9 1.7 0.00 0.00 0.00 26 1015.5
20260508061012 72 189 0.0 0.9 0.00 0.00 0.00 26 1015.5
20260508060528 72 189 0.0 1.7 0.00 0.00 0.00 26 1015.5